星链-2013 (STARLINK-2013 )

导读

STARLINK-2013是美国太空探索技术公司SpaceX星链(Starlink)卫星互联网项目的一员,于2021年2月16日发射升空。星链计划旨在构建低轨卫星互联网星座,为全球偏远地区等提供高速互联网服务。该卫星运行在近地轨道,设计寿命约5年,是SpaceX打造全球卫星互联网系统建设过程中的组成部分。

Basic Information
目录编号:
47636
目录名称:
STARLINK-2013
国际标识:
2021-012S
轨道中心:
EARTH
卫星名称:
星链-2013
卫星全名:
星链-2013 (STARLINK-2013 )
卫星状态:
已陨落 最后检测时间 2025-03-23
发射日期:
2021-02-16 UTC
国别 :
美国 (US)
星等 :
--
Orbit Information
数据来源 国际轨道数据
星历时间: 2025-03-23T09:19:23+0800
轨道信息已过期452天
半长轴: 6530.002km
偏心率: 0.0005985
轨道倾角: 53.020°
近地点辐角 307.704°
升交点赤经 135.457°
平近点角 126.951°
近地点: 147.958km
远地点: 155.776km
周期: 87.525分钟
每日圈数: 16.452536
Detailed Information
固有亮度:
5
最大亮度:
2.5
卫星平台:
Starlink V1.0
覆盖范围:
全球
运营商:
太空探索技术公司
运营商所在国:
美国
制造商(研发单位):
太空探索技术公司
制造商所在国:
美国
使用方式:
暂无
Satellite Introduction
星链(Starlink)计划是由太空探索技术公司(SpaceX)提出的一个巨型低轨卫星互联网星座项目,计划在2019年至2024年间在太空搭建由约1.2万颗卫星组成的“星链”网络,其中1584颗将部署在地球上空550千米处的近地轨道,并从2020年开始工作。该卫星仍在工作。